Year,Month,Day,Hour,Minute,Value (Times are PST for temperature in C)
2020,04,26,10,12,9.20
2020,04,26,10,13,9.20
2020,04,26,10,14,9.30
2020,04,26,10,15,9.30
2020,04,26,10,16,9.20
2020,04,26,10,17,9.20
2020,04,26,10,18,9.20
2020,04,26,10,19,9.30
2020,04,26,10,20,9.30
2020,04,26,10,21,9.30
2020,04,26,10,22,9.30
2020,04,26,10,23,9.30
2020,04,26,10,24,9.30
2020,04,26,10,25,9.30
2020,04,26,10,26,9.30
2020,04,26,10,27,9.30
2020,04,26,10,28,9.40
2020,04,26,10,29,9.40
2020,04,26,10,30,9.40
2020,04,26,10,31,9.40
2020,04,26,10,32,9.40
2020,04,26,10,33,9.40
2020,04,26,10,34,9.40
2020,04,26,10,35,9.40
2020,04,26,10,36,9.40
2020,04,26,10,37,9.40
2020,04,26,10,38,9.40
2020,04,26,10,39,9.40
2020,04,26,10,40,9.40
2020,04,26,10,41,9.40
2020,04,26,10,42,9.40
2020,04,26,10,43,9.40
2020,04,26,10,44,9.50
2020,04,26,10,45,9.50
2020,04,26,10,46,9.60
2020,04,26,10,47,9.60
2020,04,26,10,48,9.60
2020,04,26,10,49,9.60
2020,04,26,10,50,9.70
2020,04,26,10,51,9.70
2020,04,26,10,52,9.70
2020,04,26,10,53,9.70
2020,04,26,10,54,9.80
2020,04,26,10,55,9.80
2020,04,26,10,56,9.80
2020,04,26,10,57,9.80
2020,04,26,10,58,9.80
2020,04,26,10,59,9.80
2020,04,26,11,00,9.90
2020,04,26,11,01,9.90
2020,04,26,11,02,9.90
2020,04,26,11,03,10.00
2020,04,26,11,04,10.00
2020,04,26,11,05,10.10
2020,04,26,11,06,10.10
2020,04,26,11,07,10.10
2020,04,26,11,08,10.10
2020,04,26,11,09,10.20
2020,04,26,11,10,10.20
2020,04,26,11,11,10.20
2020,04,26,11,12,10.20
2020,04,26,11,13,10.20
2020,04,26,11,14,10.20
2020,04,26,11,15,10.20
2020,04,26,11,16,10.20
2020,04,26,11,17,10.20
2020,04,26,11,18,10.30
2020,04,26,11,19,10.20
2020,04,26,11,20,10.20
2020,04,26,11,21,10.20
2020,04,26,11,22,10.20
2020,04,26,11,23,10.30
2020,04,26,11,24,10.30
2020,04,26,11,25,10.40
2020,04,26,11,26,10.50
2020,04,26,11,27,10.50
2020,04,26,11,28,10.50
2020,04,26,11,29,10.50
2020,04,26,11,30,10.50
2020,04,26,11,31,10.40
2020,04,26,11,32,10.40
2020,04,26,11,33,10.50
2020,04,26,11,34,10.50
2020,04,26,11,35,10.50
2020,04,26,11,36,10.40
2020,04,26,11,37,10.40
2020,04,26,11,38,10.40
2020,04,26,11,39,10.30
2020,04,26,11,40,10.30
2020,04,26,11,41,10.30
2020,04,26,11,42,10.40
2020,04,26,11,43,10.40
2020,04,26,11,44,10.40
2020,04,26,11,45,10.30
2020,04,26,11,46,10.40
2020,04,26,11,47,10.40
2020,04,26,11,48,10.40
2020,04,26,11,49,10.50
2020,04,26,11,50,10.50
2020,04,26,11,51,10.60
2020,04,26,11,52,10.60
2020,04,26,11,53,10.60
2020,04,26,11,54,10.60
2020,04,26,11,55,10.60
2020,04,26,11,56,10.60
2020,04,26,11,57,10.70
2020,04,26,11,58,10.70
2020,04,26,11,59,10.70
2020,04,26,12,00,10.70
2020,04,26,12,01,10.60
2020,04,26,12,02,10.60
2020,04,26,12,03,10.60
2020,04,26,12,04,10.60
2020,04,26,12,05,10.50
2020,04,26,12,06,10.40
2020,04,26,12,07,10.40
2020,04,26,12,08,10.40
2020,04,26,12,09,10.40
2020,04,26,12,10,10.40
2020,04,26,12,11,10.40
2020,04,26,12,12,10.40
2020,04,26,12,13,10.40
2020,04,26,12,14,10.40
2020,04,26,12,15,10.40
2020,04,26,12,16,10.40
2020,04,26,12,17,10.40
2020,04,26,12,18,10.50
2020,04,26,12,19,10.50
2020,04,26,12,20,10.60
2020,04,26,12,21,10.60
2020,04,26,12,22,10.70
2020,04,26,12,23,10.70
2020,04,26,12,24,10.80
2020,04,26,12,25,10.80
2020,04,26,12,26,10.80
2020,04,26,12,27,10.90
2020,04,26,12,28,11.00
2020,04,26,12,29,11.10
2020,04,26,12,30,11.10
2020,04,26,12,31,11.20
2020,04,26,12,32,11.20
2020,04,26,12,33,11.30
2020,04,26,12,34,11.20
2020,04,26,12,35,11.20
2020,04,26,12,36,11.20
2020,04,26,12,37,11.20
2020,04,26,12,38,11.20
2020,04,26,12,39,11.20
2020,04,26,12,40,11.20
2020,04,26,12,41,11.20
2020,04,26,12,42,11.20
2020,04,26,12,43,11.20
2020,04,26,12,44,11.20
2020,04,26,12,45,11.20
2020,04,26,12,46,11.20
2020,04,26,12,47,11.20
2020,04,26,12,48,11.20
2020,04,26,12,49,11.30
2020,04,26,12,50,11.30
2020,04,26,12,51,11.30
2020,04,26,12,52,11.30
2020,04,26,12,53,11.30
2020,04,26,12,54,11.20
2020,04,26,12,55,11.20
2020,04,26,12,56,11.20
2020,04,26,12,57,11.20
2020,04,26,12,58,11.20
2020,04,26,12,59,11.20
2020,04,26,13,00,11.20
2020,04,26,13,01,11.30
2020,04,26,13,02,11.30
2020,04,26,13,03,11.30
2020,04,26,13,04,11.40
2020,04,26,13,05,11.40
2020,04,26,13,06,11.40
2020,04,26,13,07,11.50
2020,04,26,13,08,11.60
2020,04,26,13,09,11.60
2020,04,26,13,10,11.60
2020,04,26,13,11,11.60
2020,04,26,13,12,11.70
2020,04,26,13,13,11.70
2020,04,26,13,14,11.70
2020,04,26,13,15,11.70
2020,04,26,13,16,11.60
2020,04,26,13,17,11.60
2020,04,26,13,18,11.50
2020,04,26,13,19,11.40
2020,04,26,13,20,11.30
2020,04,26,13,21,11.30
2020,04,26,13,22,11.30
2020,04,26,13,23,11.30
2020,04,26,13,24,11.30
2020,04,26,13,25,11.30
2020,04,26,13,26,11.30
2020,04,26,13,27,11.30
2020,04,26,13,28,11.30
2020,04,26,13,29,11.40
2020,04,26,13,30,11.40
2020,04,26,13,31,11.40
2020,04,26,13,32,11.50
2020,04,26,13,33,11.60
2020,04,26,13,34,11.70
2020,04,26,13,35,11.90
2020,04,26,13,36,11.90
2020,04,26,13,37,11.90
2020,04,26,13,38,12.00
2020,04,26,13,39,12.10
2020,04,26,13,40,12.20
2020,04,26,13,41,12.30
2020,04,26,13,42,12.40
2020,04,26,13,43,12.50
2020,04,26,13,44,12.60
2020,04,26,13,45,12.70
2020,04,26,13,46,12.70
2020,04,26,13,47,12.70
2020,04,26,13,48,12.70
2020,04,26,13,49,12.60
2020,04,26,13,50,12.50
2020,04,26,13,51,12.50
2020,04,26,13,52,12.50
2020,04,26,13,53,12.50
2020,04,26,13,54,12.40
2020,04,26,13,55,12.40
2020,04,26,13,56,12.40
2020,04,26,13,57,12.30
2020,04,26,13,58,12.30
2020,04,26,13,59,12.30
2020,04,26,14,00,12.30
2020,04,26,14,01,12.30
2020,04,26,14,02,12.30
2020,04,26,14,03,12.40
2020,04,26,14,04,12.50
2020,04,26,14,05,12.60
2020,04,26,14,06,12.60
2020,04,26,14,07,12.60
2020,04,26,14,08,12.70
2020,04,26,14,09,12.70
2020,04,26,14,10,12.70
2020,04,26,14,11,12.60
2020,04,26,14,12,12.60
2020,04,26,14,13,12.70
2020,04,26,14,14,12.70
2020,04,26,14,15,12.80
2020,04,26,14,16,12.80
2020,04,26,14,17,12.80
2020,04,26,14,18,12.90
2020,04,26,14,19,12.90
2020,04,26,14,20,12.90
2020,04,26,14,21,12.80
2020,04,26,14,22,12.80
2020,04,26,14,23,12.70
2020,04,26,14,24,12.70
2020,04,26,14,25,12.60
2020,04,26,14,26,12.60
2020,04,26,14,27,12.60
2020,04,26,14,28,12.60
2020,04,26,14,29,12.60
2020,04,26,14,30,12.70
2020,04,26,14,31,12.70
2020,04,26,14,32,12.70
2020,04,26,14,33,12.60
2020,04,26,14,34,12.50
2020,04,26,14,35,12.40
2020,04,26,14,36,12.30
2020,04,26,14,37,12.30
2020,04,26,14,38,12.20
2020,04,26,14,39,12.20
2020,04,26,14,40,12.20
2020,04,26,14,41,12.20
2020,04,26,14,42,12.20
2020,04,26,14,43,12.20
2020,04,26,14,44,12.20
2020,04,26,14,45,12.20
2020,04,26,14,46,12.20
2020,04,26,14,47,12.20
2020,04,26,14,48,12.20
2020,04,26,14,49,12.20
2020,04,26,14,50,12.20
2020,04,26,14,51,12.20
2020,04,26,14,52,12.20
2020,04,26,14,53,12.20
2020,04,26,14,54,12.20
2020,04,26,14,55,12.20
2020,04,26,14,56,12.20
2020,04,26,14,57,12.20
2020,04,26,14,58,12.20
2020,04,26,14,59,12.20
2020,04,26,15,00,12.20
2020,04,26,15,01,12.20
2020,04,26,15,02,12.20
2020,04,26,15,03,12.20
2020,04,26,15,04,12.20
2020,04,26,15,05,12.30
2020,04,26,15,06,12.40
2020,04,26,15,07,12.50
2020,04,26,15,08,12.60
2020,04,26,15,09,12.80
2020,04,26,15,10,12.90
2020,04,26,15,11,13.00
2020,04,26,15,12,13.10
2020,04,26,15,13,13.20
2020,04,26,15,14,13.30
2020,04,26,15,15,13.20
2020,04,26,15,16,13.10
2020,04,26,15,17,13.00
2020,04,26,15,18,13.00
2020,04,26,15,19,13.00
2020,04,26,15,20,12.90
2020,04,26,15,21,12.90
2020,04,26,15,22,12.90
2020,04,26,15,23,12.80
2020,04,26,15,24,12.80
2020,04,26,15,25,12.80
2020,04,26,15,26,12.70
2020,04,26,15,27,12.70
2020,04,26,15,28,12.60
2020,04,26,15,29,12.50
2020,04,26,15,30,12.40
2020,04,26,15,31,12.40
2020,04,26,15,32,12.40
2020,04,26,15,33,12.40
2020,04,26,15,34,12.40
2020,04,26,15,35,12.40
2020,04,26,15,36,12.50
2020,04,26,15,37,12.40
2020,04,26,15,38,12.40
2020,04,26,15,39,12.40
2020,04,26,15,40,12.40
2020,04,26,15,41,12.30
2020,04,26,15,42,12.30
2020,04,26,15,43,12.30
2020,04,26,15,44,12.30
2020,04,26,15,45,12.20
2020,04,26,15,46,12.20
2020,04,26,15,47,12.20
2020,04,26,15,48,12.20
2020,04,26,15,49,12.20
2020,04,26,15,50,12.20
2020,04,26,15,51,12.20
2020,04,26,15,52,12.20
2020,04,26,15,53,12.20
2020,04,26,15,54,12.20
2020,04,26,15,55,12.30
2020,04,26,15,56,12.20
2020,04,26,15,57,12.30
2020,04,26,15,58,12.30
2020,04,26,15,59,12.30
2020,04,26,16,00,12.30
2020,04,26,16,01,12.30
2020,04,26,16,02,12.30
2020,04,26,16,03,12.30
2020,04,26,16,04,12.30
2020,04,26,16,05,12.40
2020,04,26,16,06,12.40
2020,04,26,16,07,12.40
2020,04,26,16,08,12.40
2020,04,26,16,09,12.40
2020,04,26,16,10,12.40
2020,04,26,16,11,12.30
2020,04,26,16,12,12.30
2020,04,26,16,13,12.30
2020,04,26,16,14,12.30
2020,04,26,16,15,12.30
2020,04,26,16,16,12.30
2020,04,26,16,17,12.30
2020,04,26,16,18,12.20
2020,04,26,16,19,12.20
2020,04,26,16,20,12.10
2020,04,26,16,21,12.00
2020,04,26,16,22,11.90
2020,04,26,16,23,11.90
2020,04,26,16,24,11.90
2020,04,26,16,25,11.80
2020,04,26,16,26,11.80
2020,04,26,16,27,11.80
2020,04,26,16,28,11.70
2020,04,26,16,29,11.70
2020,04,26,16,30,11.70
2020,04,26,16,31,11.70
2020,04,26,16,32,11.60
2020,04,26,16,33,11.60
2020,04,26,16,34,11.60
2020,04,26,16,35,11.60
2020,04,26,16,36,11.60
2020,04,26,16,37,11.60
2020,04,26,16,38,11.60
2020,04,26,16,39,11.60
2020,04,26,16,40,11.60
2020,04,26,16,41,11.60
2020,04,26,16,42,11.60
2020,04,26,16,43,11.60
2020,04,26,16,44,11.60
2020,04,26,16,45,11.60
2020,04,26,16,46,11.60
2020,04,26,16,47,11.60
2020,04,26,16,48,11.50
2020,04,26,16,49,11.50
2020,04,26,16,50,11.50
2020,04,26,16,51,11.50
2020,04,26,16,52,11.50
2020,04,26,16,53,11.50
2020,04,26,16,54,11.50
2020,04,26,16,55,11.50
2020,04,26,16,56,11.40
2020,04,26,16,57,11.40
2020,04,26,16,58,11.40
2020,04,26,16,59,11.40
2020,04,26,17,00,11.30
2020,04,26,17,01,11.30
2020,04,26,17,02,11.30
2020,04,26,17,03,11.30
2020,04,26,17,04,11.30
2020,04,26,17,05,11.30
2020,04,26,17,06,11.30
2020,04,26,17,07,11.30
2020,04,26,17,08,11.30
2020,04,26,17,09,11.30
2020,04,26,17,10,11.30
2020,04,26,17,11,11.30
2020,04,26,17,12,11.30
2020,04,26,17,13,11.40
2020,04,26,17,14,11.40
2020,04,26,17,15,11.40
2020,04,26,17,16,11.40
2020,04,26,17,17,11.40
2020,04,26,17,18,11.40
2020,04,26,17,19,11.40
2020,04,26,17,20,11.40
2020,04,26,17,21,11.40
2020,04,26,17,22,11.40
2020,04,26,17,23,11.30
2020,04,26,17,24,11.30
2020,04,26,17,25,11.30
2020,04,26,17,26,11.30
2020,04,26,17,27,11.30
2020,04,26,17,28,11.30
2020,04,26,17,29,11.30
2020,04,26,17,30,11.30
2020,04,26,17,31,11.30
2020,04,26,17,32,11.30
2020,04,26,17,33,11.30
2020,04,26,17,34,11.30
2020,04,26,17,35,11.30
2020,04,26,17,36,11.30
2020,04,26,17,37,11.30
2020,04,26,17,38,11.30
2020,04,26,17,39,11.30
2020,04,26,17,40,11.30
2020,04,26,17,41,11.30
2020,04,26,17,42,11.30
2020,04,26,17,43,11.30
2020,04,26,17,44,11.30
2020,04,26,17,45,11.30
2020,04,26,17,46,11.30
2020,04,26,17,47,11.30
2020,04,26,17,48,11.40
2020,04,26,17,49,11.40
2020,04,26,17,50,11.40
2020,04,26,17,51,11.50
2020,04,26,17,52,11.50
2020,04,26,17,53,11.50
2020,04,26,17,54,11.50
2020,04,26,17,55,11.50
2020,04,26,17,56,11.40
2020,04,26,17,57,11.40
2020,04,26,17,58,11.40
2020,04,26,17,59,11.40
2020,04,26,18,00,11.50
2020,04,26,18,01,11.50
2020,04,26,18,02,11.50
2020,04,26,18,03,11.50
2020,04,26,18,04,11.50
2020,04,26,18,05,11.50
2020,04,26,18,06,11.50
2020,04,26,18,07,11.50
2020,04,26,18,08,11.40
2020,04,26,18,09,11.40
2020,04,26,18,10,11.40
2020,04,26,18,11,11.40
2020,04,26,18,12,11.40
2020,04,26,18,13,11.40
2020,04,26,18,14,11.40
2020,04,26,18,15,11.40
2020,04,26,18,16,11.40
2020,04,26,18,17,11.40
2020,04,26,18,18,11.40
2020,04,26,18,19,11.40
2020,04,26,18,20,11.50
2020,04,26,18,21,11.50
2020,04,26,18,22,11.50
2020,04,26,18,23,11.50
2020,04,26,18,24,11.50
2020,04,26,18,25,11.50
2020,04,26,18,26,11.50
2020,04,26,18,27,11.60
2020,04,26,18,28,11.60
2020,04,26,18,29,11.60
2020,04,26,18,30,11.60
2020,04,26,18,31,11.60
2020,04,26,18,32,11.60
2020,04,26,18,33,11.60
2020,04,26,18,34,11.60
2020,04,26,18,35,11.60
2020,04,26,18,36,11.60
2020,04,26,18,37,11.60
2020,04,26,18,38,11.60
2020,04,26,18,39,11.60
2020,04,26,18,40,11.60
2020,04,26,18,41,11.50
2020,04,26,18,42,11.50
2020,04,26,18,43,11.50
2020,04,26,18,44,11.50
2020,04,26,18,45,11.50
2020,04,26,18,46,11.50
2020,04,26,18,47,11.50
2020,04,26,18,48,11.50
2020,04,26,18,49,11.50
2020,04,26,18,50,11.50
2020,04,26,18,51,11.50
2020,04,26,18,52,11.50
2020,04,26,18,53,11.50
